User: anonymous   Login
Location: Unspecified
(0.0000°N, 0.0000°E)
Time: 00:46:57
(UTC+00:00)
Language:

STARLINK-2457 - Orbit

View from above orbital plane
View from above orbital plane
View from above satellite
View from above satellite

Ground track
Ground track

The orbit is defined by the following mean orbital elements,

1 48321U          26145.29431406 +.00000000 +00000-0 +14943-4 0 00003
2 48321  53.1602 104.7782 0001185  86.5023 273.6114 15.31702700    05
Epoch (UTC): 25 May 2026 07:03:48
Eccentricity: 0.0001185
inclination: 53.1602°
perigee height: 470 km
apogee height: 472 km
right ascension of ascending node: 104.7782°
argument of perigee: 86.5023°
revolutions per day: 15.31702700
mean anomaly at epoch: 273.6114°

The dashed part of the orbit path shows where the satellite is in the earth's shadow,  

DLR